Location: ????????
(60.4333°N, 46.4710°E)
Time: 04:32:23
(UTC+00:00)

Cosmos 724 - Pass Details

Date: 25 November 2020
Orbit: 849 x 946 km, 65.6° (Epoch: 19 January)

Event Time Altitude Azimuth Distance (km) Brightness Sun altitude
Rises 15:46:20 0° 246° (WSW) 3,491 8.4 -26.1°
Reaches altitude 10° 15:48:48 10° 248° (WSW) 2,567 7.5 -26.4°
Maximum altitude 15:54:47 73° 334° (NNW) 957 4.4 -27.1°
Enters shadow 15:55:46 61° 30° (NNE) 1,039 4.4 -27.2°
